TimeAST,TemperatureF,Dew PointF,Humidity,Sea Level PressureIn,VisibilityMPH,Wind Direction,Wind SpeedMPH,Gust SpeedMPH,PrecipitationIn,Events,Conditions,WindDirDegrees,DateUTC
12:00 AM,78.8,69.8,74,30.09,6.2,East,15.0,-,N/A,,Scattered Clouds,100,2013-01-08 04:00:00
1:00 AM,78.8,69.8,74,30.09,6.2,East,11.5,-,N/A,,Partly Cloudy,90,2013-01-08 05:00:00
2:00 AM,78,69,68,30.08,19,East,15.0,,,,Scattered Clouds,90,2013-01-08 06:00:00
2:00 AM,78.8,69.8,74,30.06,6.2,East,15.0,-,N/A,,Partly Cloudy,80,2013-01-08 06:00:00
3:00 AM,75.2,68.0,78,30.06,5.0,East,12.7,-,N/A,Rain,Rain Showers,80,2013-01-08 07:00:00
4:00 AM,75.2,69.8,83,30.04,6.2,East,13.8,-,N/A,,Mostly Cloudy,80,2013-01-08 08:00:00
5:00 AM,77,70,73,30.06,9,East,18.4,,,Rain,Light Rain,90,2013-01-08 09:00:00
5:00 AM,77.0,69.8,78,30.04,6.2,East,18.4,-,N/A,Rain,Light Rain,80,2013-01-08 09:00:00
6:00 AM,77.0,69.8,78,30.06,6.2,ENE,16.1,-,N/A,,Scattered Clouds,70,2013-01-08 10:00:00
6:14 AM,-9999,-9999,N/A,30.06,5.0,ENE,18.4,34.5,N/A,Rain,Rain Showers,70,2013-01-08 10:14:00
6:30 AM,75.2,69.8,83,30.06,6.2,East,21.9,-,N/A,,Mostly Cloudy,80,2013-01-08 10:30:00
7:00 AM,77.0,71.6,83,30.09,6.2,ENE,18.4,-,N/A,Rain,Light Rain Showers,70,2013-01-08 11:00:00
8:00 AM,78,71,72,30.12,9,East,19.6,,,Rain,Light Rain Showers,80,2013-01-08 12:00:00
8:00 AM,77.0,71.6,83,30.12,6.2,East,19.6,-,N/A,,Scattered Clouds,80,2013-01-08 12:00:00
9:00 AM,78.8,71.6,78,30.15,6.2,East,19.6,-,N/A,,Scattered Clouds,80,2013-01-08 13:00:00
10:00 AM,82.4,71.6,70,30.15,6.2,East,20.7,-,N/A,,Scattered Clouds,90,2013-01-08 14:00:00
11:00 AM,80.6,69.8,70,30.15,6.2,East,23.0,-,N/A,,Scattered Clouds,80,2013-01-08 15:00:00
12:00 PM,80.6,69.8,70,30.12,6.2,East,23.0,-,N/A,,Mostly Cloudy,80,2013-01-08 16:00:00
1:00 PM,82.4,69.8,66,30.09,6.2,East,19.6,-,N/A,,Scattered Clouds,80,2013-01-08 17:00:00
2:00 PM,82,70,60,30.10,22,ESE,19.6,,,Rain,Light Rain Showers,110,2013-01-08 18:00:00
2:00 PM,82.4,71.6,70,30.09,6.2,East,17.3,-,N/A,,Scattered Clouds,80,2013-01-08 18:00:00
3:00 PM,82.4,68.0,62,30.06,6.2,East,15.0,-,N/A,,Scattered Clouds,90,2013-01-08 19:00:00
4:00 PM,82.4,69.8,66,30.06,6.2,East,17.3,-,N/A,,Mostly Cloudy,100,2013-01-08 20:00:00
5:00 PM,80,69,61,30.09,22,East,16.1,,,,Mostly Cloudy,100,2013-01-08 21:00:00
5:00 PM,80.6,69.8,70,30.09,6.2,East,16.1,-,N/A,,Scattered Clouds,100,2013-01-08 21:00:00
6:00 PM,78.8,68.0,69,30.09,6.2,East,21.9,-,N/A,,Scattered Clouds,80,2013-01-08 22:00:00
7:00 PM,77.0,69.8,78,30.09,6.2,East,17.3,32.2,N/A,Rain,Light Rain Showers,80,2013-01-08 23:00:00
8:00 PM,79,69,65,30.13,22,ESE,13.8,,,Rain,Light Rain Showers,110,2013-01-09 00:00:00
8:00 PM,78.8,69.8,74,30.12,6.2,East,13.8,-,N/A,,Scattered Clouds,90,2013-01-09 00:00:00
9:00 PM,78.8,69.8,74,30.12,6.2,East,18.4,-,N/A,,Mostly Cloudy,90,2013-01-09 01:00:00
10:00 PM,78.8,69.8,74,30.15,6.2,East,15.0,-,N/A,,Scattered Clouds,90,2013-01-09 02:00:00
11:00 PM,78,68,63,30.15,19,ENE,18.4,,,,Partly Cloudy,70,2013-01-09 03:00:00
11:00 PM,78.8,68.0,69,30.12,6.2,ENE,18.4,32.2,N/A,,Scattered Clouds,70,2013-01-09 03:00:00